Location: C�mpuri de-Sus
(45.9500°N, 22.5500°E)
Time: 06:16:42
(UTC+00:00)

Cosmos 44 - Pass Details

Date: 24 October 2021
Orbit: 579 x 782 km, 65.1° (Epoch: 04 December)

Event Time Altitude Azimuth Distance (km) Brightness Sun altitude
Rises 16:52:55 0° 200° (SSW) 3,248 7.0 -15.3°
Reaches altitude 10° 16:55:21 10° 196° (SSW) 2,329 6.2 -15.8°
Maximum altitude 17:00:36 55° 120° (ESE) 931 3.6 -16.7°
Enters shadow 17:04:07 21° 49° (NE) 1,706 4.9 -17.3°
